Regional Weather Roundup
Issued by NWS

Home | Current Version | Previous Version | Graphics & Text | Print | Product List | Glossary Off
Versions: 1 2 3 4 5 6 7 8 9 10 11 12 13 14 15 16 17 18 19 20 21 22 23 24 25 26 27 28 29 30 31 32 33 34 35 36 37 38 39 40 41 42 43 44 45 46 47 48 49 50

000
ASUS43 KDTX 242301
RWRMI
MICHIGAN HOURLY REGIONAL WEATHER ROUNDUP
NATIONAL WEATHER SERVICE DETROIT/PONTIAC MI
600 PM EST WED DEC 24 2014

NOTE: "FAIR" INDICATES FEW OR NO CLOUDS BELOW 12,000 FEET WITH NO
SIGNIFICANT WEATHER AND/OR OBSTRUCTION TO VISIBILITY.

MIZ047>049-052>055-059>063-066>070-074>076-081>083-250000-
SOUTHEAST LOWER MICHIGAN

CITY           SKY/WX    TMP DP  RH WIND       PRES   REMARKS
ADRIAN         LGT RAIN  40  38  93 N9        29.31R WCI  34
ALMA           LGT SNOW  36  35  99 NW14      29.34S WCI  27
ANN ARBOR      LGT RAIN  40  38  93 W10       29.29R WCI  33
BAD AXE        LGT SNOW  39  39 100 N14       29.24F WCI  30
CARO           RAIN      39  38  97 N9        29.26F WCI  33
DETROIT CITY   LGT RAIN  47  44  90 CALM      29.24F FOG
DETROIT        RAIN      43  42  97 NW6       29.25S FOG
FLINT          RAIN      40  37  89 N13       29.27F FOG     WCI  32
GROSSE ILE     HVY RAIN  46  45  93 W12       29.21F
HILLSDALE      DRIZZLE   38  38 100 NW15      29.33S WCI  30
HOWELL         MIX PCPN  38  38 100 W10       29.30R WCI  31

CITY           SKY/WX    TMP DP  RH WIND       PRES   REMARKS
JACKSON        LGT RAIN  37  36  96 NW8G16    29.30R WCI  31
LAMBERTVILLE   LGT RAIN  43  41  93 W14G22    29.31R
LANSING        FLURRIES  35  33  92 NW15      29.34R WCI  25
LAPEER         RAIN      40  39  97 NW6       29.25S
MASON          MIX PCPN  37  35  94 W12       29.33R WCI  29
MONROE         RAIN      45  43  93 W10       29.24S
MT. CLEMENS    LGT RAIN  43  42  96 N5        29.20F
PONTIAC        LGT RAIN  40  39  97 NW8       29.22F WCI  34
PORT HOPE        N/A     38  37  97 N12G17    29.25F WCI  30
PORT HURON     LGT RAIN  43  43 100 N3        29.21F
TRI CITIES     RAIN      40  37  89 N13       29.30F WCI  32
TROY           DRIZZLE   45  43  93 NW3       29.24F
SAGINAW HB     LGT SNOW  37  37 100 N10       29.29F WCI  30
$$
MIZ043>046-050>051-056>058-064>065-071>073-077>080-250000-
SOUTHWEST LOWER MICHIGAN

CITY           SKY/WX    TMP DP  RH WIND       PRES   REMARKS
BATTLE CREEK   FLURRIES  34  32  92 W12       29.37F WCI  25
BENTON HARBOR  LGT RAIN  36  35  96 W13G22    29.47R FOG     WCI  27
BIG RAPIDS     MIX PCPN  35  35 100 NW5       29.37F WCI  31
COLDWATER      FLURRIES  34  34  98 W16       29.38R WCI  24
FREMONT        LGT RAIN  36  35  98 NW8       29.39F WCI  29
HOLLAND        LGT RAIN  39  36  89 W3        29.44S
GRAND RAPIDS   FLURRIES  35  33  92 NW8       29.40S WCI  29
IONIA          LGT SNOW  35  34  98 NW12      29.36F WCI  26
KALAMAZOO      FLURRIES  36  33  89 W14G22    29.40R WCI  27
LUDINGTON      LGT RAIN  37  36  93 CALM      29.44R
MARSHALL       MIX PCPN  33  33  97 W15G21    29.33F WCI  23
MOUNT PLEASANT LGT SNOW  34  33  97 W6        29.36S WCI  29
MUSKEGON       LGT RAIN  38  35  89 NW12      29.40F WCI  30
SOUTH HAVEN    LGT RAIN  38  36  91 W10       29.45R WCI  31
$$
MIZ016>042-250000-
NORTHERN LOWER MICHIGAN

CITY           SKY/WX    TMP DP  RH WIND       PRES   REMARKS
ALPENA         LGT RAIN  35  34  96 N15       29.32F WCI  25
BEAVER ISLAND  RAIN      35  35  99 CALM      29.41F
BELLAIRE       MIX PCPN  35  34  94 CALM      29.41R
CADILLAC       LGT RAIN  33  32  94 NW8       29.37S WCI  27
CHARLEVOIX     LGT RAIN  36  36 100 N3        29.44S
FRANKFORT      LGT RAIN  36  35  97 CALM      29.42F
GAYLORD        LGT SNOW  33  33 100 NW3       29.36S FOG
GRAYLING       FLURRIES  33  33 100 NW7       29.37S WCI  27
HARBOR SPRINGS DRIZZLE   34  33  97 CALM      29.41S
HOUGHTON LAKE  LGT SNOW  33  31  92 NW9       29.35F FOG     WCI  25
MANISTEE       CLOUDY    36  34  93 W3        29.43S
OSCODA         LGT RAIN  37  36  99 N13G18    29.28F WCI  28
PELLSTON       LGT RAIN  34  33  96 NW3       29.40F
ROGERS CITY    LGT RAIN  36  36 100 N8        29.35F WCI  29
TRAVERSE CITY  LGT RAIN  37  35  92 N5        29.40F WCI  33
$$
MIZ007>008-015-250000-
EASTERN UPPER MICHIGAN

CITY           SKY/WX    TMP DP  RH WIND       PRES   REMARKS
KINROSS        CLOUDY    34  34 100 NW7       29.39F WCI  28
MACKINAC ISLAN LGT SNOW  35  35 100 N8        29.39F WCI  28
NEWBERRY       LGT RAIN  33  33 100 NW5       29.40F WCI  28
S. S. MARIE    LGT RAIN  35  34  96 NW3       29.39F FOG
$$
MIZ004>006-011>014-085-250000-
CENTRAL UPPER MICHIGAN

CITY           SKY/WX    TMP DP  RH WIND       PRES   REMARKS
MANISTIQUE     FLURRIES  33  33 100 N10       29.43F WCI  25
ESCANABA       CLOUDY    34  28  80 N6        29.46S WCI  29
MENOMINEE      CLOUDY    34  30  86 N7        29.47S WCI  28
SAWYER-GWINN   CLOUDY    30  28  93 N8        29.46S WCI  23
$$
MIZ001>003-009>011-084-250000-
WESTERN UPPER MICHIGAN

CITY           SKY/WX    TMP DP  RH WIND       PRES   REMARKS
IRON MOUNTAIN  CLOUDY    32  28  85 N12       29.47S WCI  23
HOUGHTON       CLOUDY    31  28  89 N8        29.49F WCI  23
COPPER HARBOR    N/A     33  29  85 NE15      29.51F WCI  23
IRONWOOD       CLOUDY    30  30 100 CALM      29.51F
$$

ABBREVIATIONS USED IN REMARKS
   TC - TEMPERATURE IN CELSIUS
  WCI - WIND CHILL INDEX
   HX - HEAT INDEX
  VSB - VISIBILITY




USA.gov is the U.S. government's official web portal to all federal, state and local government web resources and services.